Location: Plymouth
(43.7570°N, 71.6890°W)
Time: 21:27:34
(UTC-04:00)

Daily predictions for brighter satellites

Satellite Brightness Start Highest point End
(mag) Time Altitude Azimuth Time Altitude Azimuth Time Altitude Azimuth
BREEZE-M DEB (TANK) 4.0 19:47:17 10° SW 19:51:20 53° SE 20:05:46 10° ENE
Thor Agena Rocket 3.8 19:59:11 10° NNE 20:04:15 49° E 20:09:21 10° S
Cosmos 2154 Rocket 4.3 19:58:57 10° SSE 20:04:51 45° E 20:10:45 10° NNE
Cosmos 1437 2.6 20:02:12 10° S 20:05:21 74° E 20:08:34 10° NNE
Cosmos 44 Rocket 3.2 20:02:34 10° SSW 20:07:16 67° ESE 20:12:08 10° NE
Cosmos 2184 Rocket 4.0 20:02:22 10° S 20:08:32 85° E 20:14:43 10° N
Cosmos 2221 2.8 20:04:32 10° SSW 20:08:47 75° W 20:13:04 10° N
Cosmos 1346 Rocket 3.6 20:06:40 10° SSW 20:10:42 60° WNW 20:14:47 10° N
Cosmos 1300 3.2 20:10:54 10° SSW 20:14:41 64° W 20:18:30 10° N
Cosmos 2360 Rocket 2.7 20:10:54 10° SW 20:16:30 66° WNW 20:22:07 10° NNE
Cosmos 1805 Rocket 3.5 20:12:36 10° N 20:16:59 84° E 20:21:19 10° S
SJ 16-02 4.5 20:15:34 10° WSW 20:18:42 19° WNW 20:21:51 10° NNW
NOSS 2-1 (C) 3.3 20:15:35 10° SSW 20:19:05 51° ESE 20:22:56 10° NE
NOSS 2-1 (D) 3.2 20:16:32 10° SSW 20:20:04 53° ESE 20:23:56 10° NE
Resurs 01 Rocket 1.8 20:16:38 10° SSE 20:20:58 56° ENE 20:25:21 10° N
Cosmos 2333 Rocket 2.7 20:17:23 10° S 20:22:29 36° ESE 20:27:36 10° NE
ATLAS 2AS CENTAUR R/B 3.3 20:16:14 10° NNW 20:24:04 55° NE 20:30:50 12° ESE
Cosmos 2341 Rocket 4.4 20:19:03 10° SSE 20:25:02 44° E 20:30:59 10° NNE
Cosmos 1328 Rocket 4.3 20:21:42 10° SSE 20:25:39 33° E 20:29:39 10° NNE
CZ-2D R/B 4.2 20:23:20 10° S 20:27:02 50° W 20:30:46 10° NNW
COSMOS 2428 2.7 20:21:57 10° SSW 20:27:37 67° ESE 20:33:19 10° NNE
Meteor 2-15 4.4 20:21:36 10° N 20:27:47 82° E 20:33:54 10° S
Spot 2 Rocket 3.7 20:24:28 10° SSE 20:29:26 55° ENE 20:34:25 10° N
Cosmos 2333 4.1 20:25:18 10° SSW 20:30:56 74° ESE 20:36:34 10° NNE
Cosmos 1470 Rocket 4.3 20:30:28 10° N 20:34:29 34° ENE 20:37:41 15° SE
Cosmos 1844 Rocket 2.8 20:29:04 10° NNW 20:34:47 85° WSW 20:40:26 10° SSE
Cosmos 1844 3.7 20:29:10 10° NNW 20:34:53 76° ENE 20:40:34 10° SSE
Meteor 2-21 4.4 20:31:17 10° S 20:37:24 82° E 20:43:37 10° N
SJ-11-01 4.2 20:33:52 10° SSE 20:38:30 72° ENE 20:43:11 10° N
Cosmos 1455 2.4 20:35:19 10° SSE 20:39:00 48° E 20:42:44 10° NNE
Cosmos 1892 2.7 20:39:25 10° N 20:43:20 90° W 20:47:12 10° S
Cosmos 2237 Rocket 2.9 20:39:33 10° SSE 20:44:25 31° ESE 20:49:19 10° NE
Cosmos 2219 Rocket 2.2 20:39:45 10° S 20:45:20 65° ESE 20:50:56 10° NNE
ERS-2 3.5 20:41:58 10° S 20:45:24 38° W 20:48:53 10° NNW
Lacrosse 5 4.2 20:44:39 10° NW 20:48:07 18° N 20:51:36 10° NE
BREEZE-M DEB (TANK) 2.3 20:43:41 10° WNW 20:48:23 88° NNE 20:49:38 27° ESE
Cosmos 1408 3.4 20:46:03 10° NNE 20:49:22 32° ENE 20:50:51 23° ESE
NOSS 2-1 (E) 3.2 20:46:46 10° SW 20:50:23 82° NW 20:54:32 10° NE
Cosmos 2278 Rocket 2.6 20:46:22 10° NNW 20:51:52 47° ENE 20:55:31 20° SE
NOSS 0 Rocket 4.2 20:46:08 10° S 20:51:57 46° ESE 20:57:51 10° NE
ATLAS CENTAUR R/B 1.5 20:49:14 10° S 20:52:39 39° ESE 20:56:13 10° NE
Cosmos 1666 Rocket 4.2 20:52:52 10° NNW 20:57:17 59° W 21:01:40 10° S
SL-8 Rocket 4.2 20:51:43 10° SSE 20:57:47 52° E 21:03:51 10° NNE
USA 186 3.6 20:56:27 10° SSW 20:58:12 20° W 20:59:58 10° NW
NOAA 11 4.2 20:53:30 10° SSE 20:58:58 85° ENE 21:04:30 10° NNW
Genesis I 3.5 20:54:56 10° NNW 20:58:59 59° NE 21:01:00 27° ESE
Resurs 1-3 4.2 20:55:09 10° S 20:59:27 55° W 21:03:47 10° NNW
H-2A R/B 2.8 20:58:30 22° ESE 21:00:56 34° ENE 21:05:24 10° N
NOSS 3-3 (A) 3.9 20:56:13 10° SSW 21:02:15 79° ESE 21:08:53 10° NE
NOSS 3-3 (C) 3.9 20:56:20 10° SSW 21:02:20 78° SE 21:08:59 10° NE
Cosmos 1933 Rocket 3.6 20:59:02 10° N 21:03:23 56° E 21:05:47 25° SSE
YAOGAN 6 4.3 21:03:25 10° SSW 21:06:39 31° W 21:09:57 10° NNW
USA 267 3.8 21:04:38 10° ENE 21:10:21 32° SE 21:16:02 10° S
ERS-1 Rocket 3.6 21:10:18 27° ESE 21:12:22 39° ENE 21:17:02 10° N
Cosmos 220 Rocket 4.1 21:12:26 10° NNW 21:16:48 72° WSW 21:19:12 25° S
Cosmos 1151 Rocket 2.8 21:13:26 14° S 21:17:07 80° E 21:21:24 10° N
Cosmos 1869 Rocket 4.5 21:21:21 10° NNE 21:25:15 30° ENE 21:25:34 30° E
Cosmos 1825 2.0 21:23:31 10° N 21:27:20 86° E 21:28:24 46° SSE
Meteor 2-3 Rocket 4.4 21:23:47 10° NNW 21:29:12 52° W 21:34:38 10° S
Cosmos 864 Rocket 4.4 21:25:49 19° S 21:30:15 66° E 21:36:20 10° NNE
Cosmos 2098 Rocket 3.0 21:31:02 34° SSE 21:32:55 64° E 21:36:52 10° NNE
SL-16 R/B 2.9 21:33:18 31° E 21:33:18 31° E 21:37:57 10° NE
Cosmos 2056 Rocket 3.8 21:32:53 36° SSE 21:34:27 46° ESE 21:39:37 10° NNE
Cosmos 1869 3.2 21:34:42 47° S 21:35:48 78° E 21:39:50 10° N
Cosmos 2228 Rocket 3.5 21:32:09 10° SSW 21:36:29 61° W 21:40:50 10° N
Helios 1B rocket 4.0 21:35:59 10° NE 21:38:01 22° ENE 21:38:01 22° ENE
SL-8 R/B 3.7 21:36:14 10° SW 21:40:55 56° SSE 21:41:34 51° ESE
Cosmos 1515 Rocket 4.3 21:37:38 10° SSW 21:42:00 53° WNW 21:46:23 10° N
USA 234 4.3 21:40:32 16° ENE 21:45:11 37° NNE 21:51:05 10° NW
Cosmos 405 3.4 21:41:51 10° N 21:44:48 52° NE 21:44:48 52° NE
ARGOS 3.2 21:44:34 32° S 21:47:07 75° WSW 21:52:30 10° NNW
Cosmos 1943 Rocket 4.5 21:46:54 10° NNE 21:48:16 11° NE 21:49:37 10° NE
GEOS 3 Rocket 3.5 21:43:48 10° NE 21:49:10 69° SE 21:54:24 10° SSW
Helios 1A 3.0 21:49:42 62° E 21:49:53 63° ENE 21:54:03 10° N
Cosmos 1624 Rocket 3.8 21:50:09 42° S 21:51:49 69° ESE 21:57:00 10° NNE
BREEZE-M DEB (TANK) 3.6 21:49:17 10° WNW 21:51:02 30° WNW 21:51:02 30° WNW
SL-08 RB Rocket 3.7 21:52:57 52° S 21:53:58 77° WSW 21:58:29 10° NNW
MetOp-B 4.2 21:51:53 36° S 21:54:05 73° WSW 21:59:28 10° NNW
Cosmos 1190 Rocket 4.0 21:50:05 10° NNW 21:55:23 72° ENE 21:56:23 57° SE
Resurs 01 Rocket 4.3 21:55:16 10° SW 21:57:48 15° W 22:00:20 10° NW
CZ-2C R/B 4.5 21:58:35 21° ENE 21:58:35 21° ENE 22:01:54 10° NNE
Cosmos 1980 4.1 21:54:36 10° SW 22:00:13 62° WNW 22:05:53 10° NNE
Cosmos 2297 3.7 21:56:14 10° NNW 22:01:54 67° ENE 22:02:58 55° ESE
Cosmos 1727 Rocket 3.9 21:56:19 10° N 22:02:31 82° W 22:04:57 40° S
Landsat 7 4.0 22:03:40 52° ENE 22:03:42 52° ENE 22:08:19 10° N
BREEZE-M DEB (TANK) 3.4 22:00:28 10° WNW 22:04:53 31° N 22:05:12 30° N
Cosmos 1140 Rocket 3.9 22:01:11 10° N 22:06:10 45° ENE 22:06:25 45° ENE
Cosmos 2333 Rocket 3.7 22:01:30 10° WSW 22:06:43 37° NW 22:11:56 10° N
Cosmos 1821 Rocket 4.2 22:08:27 48° ESE 22:08:59 49° E 22:15:02 10° NNE
Cosmos 1954 Rocket 4.3 22:04:12 10° N 22:09:16 49° ENE 22:09:29 49° ENE
Cosmos 2369 Rocket 3.8 22:08:06 10° N 22:12:20 21° NE 22:13:27 20° ENE
Cosmos 1441 Rocket 4.3 22:13:58 37° NNE 22:13:58 37° NNE 22:16:22 10° N
Meteor 2-10 Rocket 4.0 22:11:14 28° SSW 22:14:18 68° WNW 22:20:08 10° N
ATLAS 2AS CENTAUR R/B 3.8 22:07:44 10° NW 22:14:52 40° WSW 22:18:17 26° SSW
DMSP B5D2-2 3.9 22:12:15 10° NNE 22:17:32 83° ESE 22:18:05 72° S
Cosmos 1862 3.8 22:14:54 10° NNW 22:18:24 60° NW 22:18:24 60° NW
BREEZE M DEB (TANK) 4.4 22:01:59 10° WSW 22:19:16 66° NNW 22:22:58 19° ENE
Spot 1 4.3 22:20:20 78° ENE 22:20:20 78° ENE 22:25:08 10° N
IGS 5A 4.3 22:21:28 42° NNE 22:21:28 42° NNE 22:24:32 10° N
Terra 2.3 22:21:55 50° NE 22:21:55 50° NE 22:26:02 10° N
Cosmos 2123 Rocket 4.5 22:17:53 10° N 22:23:53 43° ENE 22:24:07 43° E
Cosmos 2237 Rocket 3.4 22:23:03 10° SW 22:28:19 41° WNW 22:33:38 10° NNE
SPOT 5 3.0 22:30:51 61° W 22:30:51 61° W 22:35:13 10° NNW
SPOT 1/Viking Rocket 3.6 22:31:21 67° SW 22:31:43 69° WSW 22:36:57 10° NNW
ATLAS CENTAUR R/B 3.7 22:28:51 10° W 22:31:46 21° NW 22:34:48 10° N
Lacrosse 5 3.6 22:28:26 10° NW 22:32:38 25° NNE 22:34:13 22° NE
Cosmos 2278 Rocket 3.7 22:30:59 10° NW 22:35:40 27° WSW 22:37:22 23° SW
CZ-2C R/B 4.1 22:32:36 10° NNE 22:35:16 24° ENE 22:35:16 24° ENE
CZ-4C R/B 4.1 22:41:44 18° ENE 22:41:44 18° ENE 22:43:23 10° NE
Cosmos 1535 Rocket 4.4 22:39:34 69° ESE 22:39:42 70° E 22:46:02 10° NNE
Cosmos 405 Rocket 4.2 22:41:01 36° NNW 22:41:01 36° NNW 22:43:43 10° N
H-2A R/B 3.4 22:39:07 27° WSW 22:40:21 30° W 22:44:46 10° NW
NOSS 3-4 (A) 3.8 22:38:31 10° NW 22:45:32 70° WSW 22:46:43 60° S
NOSS 3-4 (C) 3.8 22:38:37 10° NW 22:45:38 70° WSW 22:46:49 61° S
Cosmos 407 Rocket 4.3 22:43:11 10° NW 22:47:58 40° WSW 22:48:01 40° WSW
ATLAS 5 CENTAUR R/B 3.6 22:43:20 10° NNW 22:48:25 31° NE 22:49:40 28° ENE
USA 267 3.3 22:47:11 10° NE 22:53:45 78° NW 23:00:16 10° WSW
Cosmos 614 Rocket 4.4 22:52:19 10° NNW 22:56:51 58° WNW 22:56:51 58° WNW
Cosmos 1605 Rocket 4.3 22:59:49 55° ENE 22:59:49 55° ENE 23:05:19 10° NNE
Cosmos 2344 3.5 23:10:53 44° SW 23:13:40 85° NW 23:22:13 10° NE
Helios 1B rocket 4.4 23:11:19 10° N 23:14:23 26° WNW 23:14:23 26° WNW
SL-16 R/B 3.3 23:15:04 31° W 23:16:59 41° WNW 23:22:19 10° NNE
Cosmos 1452 Rocket 4.2 23:18:15 52° NNW 23:18:15 52° NNW 23:22:42 10° NNE
USA 234 3.1 23:27:52 85° N 23:27:52 85° N 23:34:20 10° NW
Cosmos 1934 Rocket 4.4 23:31:58 54° WNW 23:31:58 54° WNW 23:37:52 10° N
Cosmos 1943 Rocket 3.0 23:27:54 10° NNW 23:32:07 45° NNE 23:32:07 45° NNE
CZ-2C R/B 4.3 23:39:38 32° NW 23:39:38 32° NW 23:42:34 10° NNW
Mayak 1.6 23:37:37 10° NNE 23:37:59 12° NE 23:37:59 12° NE
Cosmos 1603 4.5 23:44:59 48° N 23:44:59 48° N 23:49:06 10° NNE
Cosmos 1943 4.4 23:51:45 36° NNE 23:51:45 36° NNE 23:55:04 10° NNE
SeaSat 1 3.8 23:55:37 35° N 23:55:37 35° N 23:58:45 10° NNW
